Find Starlink 32418

NORAD ID: 62429 Int'l Des: 2024-249 Owner: SPXS Country: US Constellation: starlink operational
LEOCIRCULAR

当前视图

正在加载3D地球...

About Starlink 32418

Starlink 32418 (NORAD 62429) is a starlink constellation satellite (v2 mini) launched Dec 23, 2024 by SPXS of US. It operates in LEO, CIRCULAR orbit with a mass of 730.00 kg.

关于 Starlink 32418

正在加载描述...

即将过境

Passes for default location (London). Set your location on the main map for personalized predictions.

高度历史

Loading altitude history...

两行轨道根数

1 62429U 24249W 26169.18470036 .00013564 00000-0 50154-3 0 9994
2 62429 42.9969 106.4715 0001577 264.0406 96.0266 15.27577653 83187
Epoch: Jun 18, 2026 • Age: 11 hours

当前状态

高度 482.6 km
速度 7.63 km/s
星下点 2.93°N, 31.41°W
发射日期 Dec 23, 2024
运行时间 1.4 years
类型 internet

技术详情

分类 Payload
质量 730.00 kg
干质量 700.00 kg
总质量 730.00 kg
长度 0.30 m
直径 4.10 m
跨度 29.00 m
形状 Box + pan
制造商 SPXS
平台类型 Starlink V2M
阶段状态 In Orbit
所有者/国家 SPXS/US

Most Searched